This demonstration page uses our WeatherBlox Daily Observations layout. Learn more.

Left ArrowRight Arrow

Hourly Observations for June 25, 2021

Temp ( °F °C ) Dew Point ( °F °C ) Humidity (%) Winds ( mph kmh ) Pressure ( in mb ) Visibility ( mi km ) Precip ( " mm )
12:59 am 00:59 Mostly Cloudy 69 20.6 59 15 70 70 ENE 7 11 30.29 1026 10 16 0.00 0.00
1:59 am 01:59 Mostly Cloudy 69 20.6 60 15.6 73 73 ENE 9 15 30.29 1026 10 16 0.00 0.00
2:59 am 02:59 Cloudy 69 20.6 61 16.1 76 76 E 9 15 30.28 1025 10 16 0.00 0.00
3:59 am 03:59 Cloudy 69 20.6 61 16.1 76 76 E 6 9 30.27 1025 10 16 0.00 0.00
4:22 am 04:22 Cloudy 69 20.6 61 16.1 76 76 E 5 7 30.27 1025 10 16 0.00 0.00
4:59 am 04:59 Cloudy 69 20.6 62 16.7 78 78 ESE 5 7 30.28 1025 10 16 0.00 0.00
5:59 am 05:59 Cloudy 69 20.6 62 16.7 78 78 Calm 30.29 1026 10 16 0.00 0.00
6:59 am 06:59 Cloudy 70 21.1 63 17.2 79 79 ESE 5 7 30.30 1026 10 16 0.00 0.00
7:59 am 07:59 Cloudy 71 21.7 64 17.8 79 79 E 6 9 30.32 1027 10 16 0.00 0.00
8:06 am 08:06 Cloudy 72 22.2 64 17.8 76 76 ESE 7 11 30.32 1027 10 16 0.00 0.00
8:17 am 08:17 Cloudy 71 21.7 63 17.2 76 76 ESE 7 11 30.33 1027 10 16 0.00 0.00
8:35 am 08:35 Mostly Cloudy 72 22.2 63 17.2 73 73 ESE 5 7 30.33 1027 9 14 0.00 0.00
8:59 am 08:59 Mostly Cloudy 73 22.8 63 17.2 71 71 SE 3 6 30.33 1027 10 16 0.00 0.00
9:59 am 09:59 Mostly Cloudy 75 23.9 65 18.3 71 71 ENE 9 15 30.31 1026 10 16 0.00 0.00
10:59 am 10:59 Mostly Cloudy 76 24.4 65 18.3 69 69 ENE 10 17 30.29 1026 10 16 0.00 0.00
11:59 am 11:59 Mostly Cloudy 75 23.9 66 18.9 74 74 NE 12 19 30.29 1026 10 16 0.00 0.00
12:59 pm 12:59 Mostly Cloudy 74 23.3 66 18.9 76 76 ENE 13 20 30.31 1026 10 16 0.00 0.00
1:32 pm 13:32 Cloudy 73 22.8 66 18.9 79 79 ENE 13 20 30.31 1026 10 16 0.00 0.00
1:59 pm 13:59 Mostly Cloudy 76 24.4 67 19.4 74 74 ENE 13 20 30.29 1026 10 16 0.00 0.00
2:59 pm 14:59 Mostly Cloudy 77 25 68 20 74 74 NE 14 22 30.28 1025 10 16 0.00 0.00
3:59 pm 15:59 Mostly Cloudy 77 25 69 20.6 77 77 E 14 22 30.27 1025 10 16 0.00 0.00
4:59 pm 16:59 Mostly Cloudy 76 24.4 68 20 77 77 ENE 9 15 30.27 1025 10 16 0.00 0.00
5:59 pm 17:59 Mostly Cloudy 75 23.9 69 20.6 82 82 ENE 10 17 30.26 1025 9 14 0.00 0.00
6:59 pm 18:59 Mostly Cloudy 74 23.3 69 20.6 85 85 E 10 17 30.26 1025 9 14 0.00 0.00
7:59 pm 19:59 Mostly Cloudy 74 23.3 69 20.6 85 85 ENE 10 17 30.26 1025 8 13 0.00 0.00
8:06 pm 20:06 Partly Cloudy 74 23.3 69 20.6 85 85 E 9 15 30.26 1025 8 13 0.00 0.00
8:15 pm 20:15 Mostly Cloudy 74 23.3 69 20.6 85 85 E 8 13 30.26 1025 8 13 0.00 0.00
8:32 pm 20:32 Mostly Cloudy 73 22.8 69 20.6 87 87 E 9 15 30.26 1025 7 11 0.00 0.00
8:59 pm 20:59 Mostly Cloudy 74 23.3 70 21.1 88 88 E 6 9 30.26 1025 8 13 0.00 0.00
9:01 pm 21:01 Mostly Cloudy 74 23.3 70 21.1 88 88 E 5 7 30.26 1025 8 13 0.00 0.00
9:40 pm 21:40 Mostly Cloudy 74 23.3 70 21.1 88 88 ENE 7 11 30.27 1025 7 11 0.00 0.00
9:59 pm 21:59 Cloudy 74 23.3 70 21.1 88 88 E 7 11 30.27 1025 7 11 0.00 0.00
10:59 pm 22:59 Mostly Cloudy 73 22.8 70 21.1 90 90 ESE 7 11 30.26 1025 8 13 0.00 0.00
11:59 pm 23:59 Partly Cloudy 73 22.8 70 21.1 90 90 SE 3 6 30.25 1025 8 13 0.00 0.00

Powered by AerisWeather